Location: Waning Moon II Observatory
(30.3730°N, 89.7620°W)
Time: 16:11:03
(UTC-05:00)

Daily predictions for brighter satellites

Satellite Brightness Start Highest point End
(mag) Time Altitude Azimuth Time Altitude Azimuth Time Altitude Azimuth
FengYun 1-2 T 4.3 20:15:05 10° SSE 20:20:41 80° ENE 20:26:21 10° N
Cosmos 2084 4.0 20:22:08 10° S 20:25:33 29° ESE 20:28:55 10° NE
ERS-1 Rocket 4.3 20:23:28 10° ESE 20:27:15 22° ENE 20:31:03 10° NNE
Cosmos 1733 Rocket 3.5 20:24:40 10° SSE 20:28:49 42° E 20:32:59 10° NNE
ATLAS 5 CENTAUR R/B 3.1 20:23:17 10° NNW 20:29:02 40° ENE 20:35:05 10° SE
Cosmos 1452 Rocket 4.2 20:31:44 10° SSE 20:36:21 32° E 20:40:58 10° NE
COSMOS 2406 3.6 20:38:16 10° N 20:43:48 48° ENE 20:48:48 12° SE
Cosmos 1408 4.3 20:43:50 14° ESE 20:44:45 15° E 20:46:51 10° NE
Cosmos 2184 Rocket 3.9 20:39:51 10° S 20:45:58 75° E 20:52:08 10° N
Cosmos 2278 Rocket 2.8 20:41:22 10° SSE 20:46:26 34° ESE 20:51:30 10° NE
ALOS 2.4 20:42:56 10° S 20:47:36 82° W 20:52:17 10° NNW
Cosmos 1825 3.7 20:47:48 16° ESE 20:49:03 18° E 20:51:42 10° NE
Cosmos 1844 Rocket 2.7 20:43:44 10° SSW 20:49:23 86° ESE 20:55:04 10° NNE
Cosmos 1844 3.7 20:45:33 10° S 20:51:12 64° ESE 20:56:56 10° NNE
MINOTAUR IV R/B 4.5 20:47:25 10° SSW 20:51:52 78° ESE 20:56:20 10° NNE
H-2A R/B 3.3 20:55:26 17° ESE 20:57:24 24° ENE 21:00:48 10° NNE
Intelsat 3F5 C 3.9 20:54:45 10° W 20:58:04 80° S 20:59:55 22° E
FENGYUN 3A 3.9 20:52:43 10° S 20:58:05 71° WSW 21:03:28 10° NNW
Cosmos 1184 Rocket 4.5 20:59:21 17° E 20:59:21 17° E 21:01:22 10° NE
CENTAUR R/B 3.2 20:57:28 10° NNW 21:05:34 87° WSW 21:12:56 14° SSE
Meteor 2-10 Rocket 3.8 21:00:00 10° N 21:05:47 85° W 21:11:22 10° S
Myojo/LAPS 3.9 21:08:56 10° SW 21:11:58 25° S 21:11:58 25° S
ISS -1.6 21:09:34 10° WSW 21:12:35 34° NW 21:15:36 10° NNE
Meteor 1-10 Rocket 4.2 21:07:36 10° N 21:13:24 81° E 21:18:23 14° S
USA 186 3.4 21:10:52 10° SSW 21:13:36 31° W 21:16:31 10° NNW
EO 1 Delta rocket 4.2 21:08:34 10° NNE 21:14:05 53° E 21:17:42 17° SSE
Centaur D-1A AC-32 2.7 21:09:47 10° WSW 21:15:44 38° S 21:16:51 30° SE
Cosmos 1862 3.4 21:14:21 21° SSE 21:16:49 54° E 21:20:48 10° NNE
SPOT 5 3.9 21:15:47 25° ESE 21:17:53 34° ENE 21:22:38 10° N
Cosmos 1238 Rocket 3.9 21:15:42 10° NNE 21:18:32 25° E 21:18:32 25° E
Orbus 7S 4.0 21:14:22 10° W 21:19:44 45° SSW 21:20:27 37° SSE
Cosmos 2297 4.3 21:19:07 24° SE 21:21:30 34° ESE 21:26:35 10° NE
Okean 2 Rocket 3.6 21:25:23 35° ESE 21:26:03 37° E 21:30:07 10° NNE
OAO 3 Rocket 3.1 21:22:27 10° WSW 21:27:23 72° SSE 21:30:20 24° ENE
COS B Rocket 3.1 21:25:01 10° NNE 21:28:50 54° E 21:29:13 51° ESE
ATLAS 2A CENTAUR R/B 2.0 21:26:23 10° WSW 21:28:15 22° SW 21:28:15 22° SW
Cosmos 1674 Rocket 3.7 21:25:50 10° N 21:30:16 73° W 21:33:03 22° S
Okean 3 4.1 21:28:17 10° NNE 21:32:15 36° E 21:32:25 36° E
SL-27 R/B 3.1 21:31:10 10° NNW 21:34:42 53° WSW 21:35:57 34° SSW
Sich 1 Rocket 4.5 21:31:39 10° SSW 21:36:05 51° W 21:40:34 10° N
Cosmos 1606 2.6 21:33:04 10° N 21:37:00 78° E 21:37:45 55° SSE
Cosmos 1782 Rocket 3.5 21:38:00 39° SSE 21:39:33 72° E 21:44:01 10° N
Nadezhda 3 Rocket 4.0 21:33:33 10° N 21:39:55 73° E 21:43:14 30° SSE
PSLV R/B 3.2 21:37:09 10° WNW 21:40:35 87° NNE 21:40:36 87° NE
Meteor 1-27 Rocket 3.6 21:35:33 10° N 21:41:06 82° E 21:43:36 34° SSE
Meteosat 1 Rocket2 4.2 21:37:06 10° W 21:42:57 75° S 21:47:26 30° ESE
Meteor 2-13 Rocket 4.4 21:39:53 30° SSE 21:42:57 61° E 21:49:01 10° NNE
MetOp-B 4.3 21:46:20 44° ESE 21:47:34 54° ENE 21:52:46 10° N
Envisat 3.0 21:46:05 35° S 21:48:17 80° WSW 21:53:23 10° NNW
Cosmos 1782 4.1 21:44:36 10° NNW 21:48:21 38° W 21:50:33 21° SSW
GPS 2-05 Rocket1 4.3 21:46:11 10° WNW 21:49:39 37° N 21:50:39 30° NNE
ERBS 4.1 21:48:00 10° WNW 21:50:53 25° WSW 21:51:07 24° SW
APEX 3.1 21:51:35 88° SE 21:51:37 88° ESE 21:56:06 10° NNE
COSMOS 2487 3.4 21:49:34 10° N 21:52:14 39° NNE 21:52:14 39° NNE
Cosmos 1939 Rocket 3.7 21:53:45 35° SW 21:54:47 45° W 21:58:32 10° NNW
SEDSat Delta rocket 3.1 21:50:38 10° WSW 21:54:13 55° SW 21:54:13 55° SW
Cosmos 2341 Rocket 4.2 21:52:34 13° SSW 21:58:17 71° W 22:04:34 10° N
Cosmos 1420 Rocket 4.2 21:55:11 13° SSW 21:59:48 72° WNW 22:05:02 10° NNE
Cosmos 1975 Rocket 3.0 21:56:22 10° N 22:00:24 68° NE 22:00:24 68° NE
Atlas Centaur 2 2.1 21:58:26 10° W 22:00:48 38° WSW 22:00:48 38° WSW
ARGOS 3.5 22:05:13 47° ENE 22:05:19 47° ENE 22:10:25 10° N
ERS-1 Rocket 4.4 22:02:39 17° SSW 22:05:46 32° W 22:10:16 10° NW
SL-8 Rocket 3.9 22:10:09 47° S 22:12:09 85° E 22:18:24 10° N
H-2A R/B 3.4 22:13:15 26° ENE 22:13:15 26° ENE 22:16:58 10° NNE
Cosmos 1378 Rocket 4.3 22:08:26 10° NNW 22:12:34 46° W 22:13:08 43° WSW
ATLAS 5 CENTAUR R/B 3.9 22:08:19 10° NW 22:13:39 30° WSW 22:16:44 20° SSW
CZ-4 R/B 4.2 22:11:16 10° NNE 22:14:48 50° NE 22:14:48 50° NE
YAOGAN 6 4.1 22:18:38 34° NNW 22:18:38 34° NNW 22:20:45 10° NNW
Timation 2 Rocket 3.9 22:13:12 10° NNW 22:19:05 60° ENE 22:19:21 60° E
Cosmos 1140 Rocket 3.4 22:14:10 10° NNW 22:19:08 78° NE 22:19:08 78° NE
Cosmos 1242 Rocket 4.3 22:22:37 10° NNW 22:24:43 32° NNW 22:24:43 32° NNW
SPOT 1/Viking Rocket 3.5 22:28:03 82° NNW 22:28:03 82° NNW 22:33:03 10° NNW
USA 234 3.1 22:21:44 10° NE 22:28:16 74° SE 22:30:49 40° SSW
Cosmos 2278 Rocket 4.3 22:25:53 10° WSW 22:30:28 25° WNW 22:35:06 10° N
CZ-4B R/B 3.8 22:25:54 10° N 22:30:41 56° WNW 22:31:08 54° W
H-2A R/B 4.1 22:32:35 20° WSW 22:33:17 21° W 22:36:33 10° NW
Cosmos 1833 Rocket 3.7 22:29:27 10° N 22:33:42 34° NE 22:33:42 34° NE
Cosmos 864 Rocket 4.4 22:42:35 79° WSW 22:42:45 80° W 22:48:55 10° N
Terra 3.3 22:52:21 30° NNE 22:52:21 30° NNE 22:54:55 10° N
CZ-3C R/B 3.5 22:37:14 10° WSW 22:50:58 34° SSW 22:50:58 34° SSW
Cosmos 2366 rocket 4.3 22:51:57 58° WSW 22:52:38 61° W 22:58:53 10° N
Cosmos 2082 Rocket 2.7 22:50:26 10° NNW 22:54:52 55° N 22:54:52 55° N
USA 229 DEB 3.9 23:10:32 10° NNW 23:16:52 69° N 23:16:52 69° N
USA 229 3.9 23:10:38 10° NNW 23:16:58 69° N 23:16:58 69° N
Cosmos 2369 Rocket 4.2 23:42:13 20° NNE 23:42:13 20° NNE 23:43:51 10° NNE
H-2A R/B 4.1 23:53:53 22° WNW 23:53:53 22° WNW 23:56:23 10° NW
